TimeMDT,TemperatureF,Dew PointF,Humidity,Sea Level PressureIn,VisibilityMPH,Wind Direction,Wind SpeedMPH,Gust SpeedMPH,PrecipitationIn,Events,Conditions,WindDirDegrees,DateUTC
12:53 AM,48.9,28.0,44,29.95,10.0,NNW,3.5,-,N/A,,Clear,340,2012-10-11 06:53:00
1:53 AM,50.0,28.9,44,29.94,10.0,NNW,3.5,-,N/A,,Clear,330,2012-10-11 07:53:00
2:53 AM,48.9,28.0,44,29.93,10.0,NNW,3.5,-,N/A,,Clear,330,2012-10-11 08:53:00
3:53 AM,48.9,28.0,44,29.92,10.0,Calm,Calm,-,N/A,,Clear,0,2012-10-11 09:53:00
4:53 AM,46.0,27.0,47,29.93,10.0,Calm,Calm,-,N/A,,Clear,0,2012-10-11 10:53:00
5:53 AM,43.0,28.0,56,29.97,10.0,NNE,6.9,-,N/A,,Mostly Cloudy,20,2012-10-11 11:53:00
6:53 AM,44.1,28.0,53,29.99,10.0,North,8.1,-,N/A,,Clear,10,2012-10-11 12:53:00
7:53 AM,50.0,30.0,46,29.98,10.0,Calm,Calm,-,N/A,,Partly Cloudy,0,2012-10-11 13:53:00
8:53 AM,57.9,30.0,35,30.00,10.0,North,4.6,-,N/A,,Clear,360,2012-10-11 14:53:00
9:53 AM,62.1,30.0,30,30.01,10.0,Variable,3.5,-,N/A,,Clear,0,2012-10-11 15:53:00
10:53 AM,66.9,28.9,24,30.00,10.0,Calm,Calm,-,N/A,,Clear,0,2012-10-11 16:53:00
11:53 AM,71.1,30.0,22,29.95,10.0,South,5.8,-,N/A,,Clear,190,2012-10-11 17:53:00
12:53 PM,75.0,30.9,20,29.94,10.0,SW,8.1,-,N/A,,Clear,230,2012-10-11 18:53:00
1:53 PM,73.9,32.0,21,29.91,10.0,WSW,8.1,16.1,N/A,,Partly Cloudy,250,2012-10-11 19:53:00
2:53 PM,75.9,30.9,19,29.89,10.0,SW,8.1,-,N/A,,Clear,230,2012-10-11 20:53:00
4:53 PM,75.0,27.0,17,29.90,10.0,WSW,15.0,18.4,N/A,,Mostly Cloudy,250,2012-10-11 22:53:00
5:53 PM,72.0,30.9,22,29.93,10.0,WSW,15.0,21.9,N/A,,Partly Cloudy,240,2012-10-11 23:53:00
6:53 PM,69.1,34.0,27,29.96,10.0,South,9.2,-,N/A,,Partly Cloudy,190,2012-10-12 00:53:00
7:53 PM,66.9,34.0,30,29.97,10.0,SSW,4.6,-,N/A,,Partly Cloudy,200,2012-10-12 01:53:00
8:53 PM,63.0,39.9,43,29.96,10.0,SSE,6.9,-,N/A,,Clear,150,2012-10-12 02:53:00
10:53 PM,60.1,43.0,53,29.97,10.0,SE,6.9,-,N/A,,Clear,140,2012-10-12 04:53:00